Weather History for KISQ - February, 2014

Change the Weather History Date:

Saturday, February 1, 2014

  Actual Average Record
Temperature  
Mean Temperature 4 °F -  
Max Temperature 14 °F 26 °F 41 °F (1952)
Min Temperature -5 °F 9 °F -22 °F (1985)
Degree Days  
Heating Degree Days 60    
Moisture  
Dew Point 0 °F    
Average Humidity 78    
Maximum Humidity 89    
Minimum Humidity 61    
Precipitation  
Precipitation 0.00 in - - ()
Sea Level Pressure  
Sea Level Pressure 29.99 in    
Wind  
Wind Speed 3 mph (West)    
Max Wind Speed 9 mph    
Max Gust Speed -    
Visibility 8 miles    
Events Snow    
Averages and records for this station are not official NWS values.
T = Trace of Precipitation, MM = Missing Value Source: NWS Daily Summary

Daily Weather History Graph

Daily Weather History Graph

Search for Another Location

Airport or City:

Trip Planner

Search our weather history database for the weather conditions in past years. The results will help you decide how hot, cold, wet, or windy it might be!

Date:

Astronomy

Feb. 01, 2014 Rise Set
Actual Time 8:06 AM EST 5:50 PM EST
Civil Twilight 7:35 AM EST 6:22 PM EST
Nautical Twilight 6:59 AM EST 6:57 PM EST
Astronomical Twilight 6:24 AM EST 7:32 PM EST
Moon 8:46 AM EST (2/1) 8:35 PM EST (2/1)
Length of Visible Light 10h 47m
Length of Day
9h 43m
Waxing Crescent, 5% of the Moon is Illuminated
Feb 1
Waxing Crescent
Feb 6
First Quarter
Feb 14
Full
Feb 22
Last Quarter
Mar 1
New

Hourly Weather History & Observations

Time (EST) Temp. Windchill Dew Point Humidity Pressure Visibility Wind Dir Wind Speed Gust Speed Precip Events Conditions
12:15 AM 3.2 °F -7.8 °F -4.0 °F 72% 30.05 in 10.0 mi SW 5.8 mph - N/A   Clear
12:34 AM 3.2 °F -6.2 °F -3.5 °F 74% 30.04 in 10.0 mi WSW 4.6 mph - N/A   Clear
12:54 AM 2.3 °F -5.2 °F -3.5 °F 77% 30.05 in 10.0 mi WSW 3.5 mph - N/A   Clear
1:14 AM 1.2 °F -8.5 °F -4.7 °F 76% 30.05 in 10.0 mi WSW 4.6 mph - N/A   Clear
1:34 AM 0.5 °F -7.3 °F -6.0 °F 74% 30.05 in 10.0 mi WSW 3.5 mph - N/A   Clear
1:55 AM -1.3 °F - -7.2 °F 76% 30.06 in 10.0 mi Calm Calm - N/A   Clear
2:14 AM -1.8 °F - -7.2 °F 78% 30.06 in 10.0 mi Calm Calm - N/A   Clear
2:34 AM -2.6 °F -10.8 °F -7.1 °F 81% 30.06 in 10.0 mi WSW 3.5 mph - N/A   Clear
2:55 AM -4.0 °F -12.4 °F -8.5 °F 81% 30.06 in 10.0 mi West 3.5 mph - N/A   Clear
3:14 AM -3.5 °F -11.8 °F -7.4 °F 83% 30.06 in 10.0 mi West 3.5 mph - N/A   Clear
3:34 AM -2.4 °F -12.7 °F -6.7 °F 82% 30.05 in 10.0 mi West 4.6 mph - N/A   Clear
3:55 AM -1.3 °F -13.1 °F -6.7 °F 78% 30.05 in 10.0 mi West 5.8 mph - N/A   Clear
4:14 AM -3.6 °F -14.1 °F -8.9 °F 78% 30.04 in 10.0 mi West 4.6 mph - N/A   Clear
4:34 AM -3.3 °F -15.4 °F -8.5 °F 78% 30.04 in 10.0 mi West 5.8 mph - N/A   Clear
4:54 AM -4.0 °F -12.4 °F -9.2 °F 78% 30.04 in 10.0 mi West 3.5 mph - N/A   Clear
5:14 AM -4.2 °F -14.8 °F -9.4 °F 78% 30.05 in 10.0 mi West 4.6 mph - N/A   Clear
5:35 AM -3.8 °F -16.1 °F -9.2 °F 78% 30.04 in 10.0 mi West 5.8 mph - N/A   Clear
5:54 AM -5.4 °F -16.2 °F -10.8 °F 77% 30.03 in 10.0 mi West 4.6 mph - N/A   Clear
6:14 AM -3.8 °F -12.2 °F -9.2 °F 78% 30.03 in 10.0 mi West 3.5 mph - N/A   Clear
6:35 AM -3.6 °F -12.0 °F -8.9 °F 78% 30.03 in 10.0 mi WSW 3.5 mph - N/A   Clear
6:54 AM -2.7 °F - -8.5 °F 76% 30.04 in 10.0 mi Calm Calm - N/A   Clear
7:14 AM -2.6 °F -10.8 °F -8.3 °F 76% 30.04 in 10.0 mi SSW 3.5 mph - N/A   Clear
7:35 AM -1.8 °F - -8.0 °F 75% 30.04 in 10.0 mi Calm Calm - N/A   Clear
7:54 AM -2.2 °F -10.4 °F -8.0 °F 76% 30.03 in 10.0 mi NW 3.5 mph - N/A   Clear
8:14 AM -1.8 °F -9.9 °F -7.8 °F 76% 30.02 in 10.0 mi NNW 3.5 mph - N/A   Clear
8:34 AM -1.8 °F - -7.8 °F 76% 30.03 in 10.0 mi Calm Calm - N/A   Clear
8:54 AM -2.2 °F - -8.0 °F 76% 30.03 in 10.0 mi Calm Calm - N/A   Mostly Cloudy
9:15 AM -1.5 °F - -7.6 °F 75% 30.02 in 10.0 mi Calm Calm - N/A   Overcast
9:34 AM -0.8 °F - -6.7 °F 76% 30.01 in 10.0 mi Calm Calm - N/A   Overcast
9:54 AM 0.3 °F - -6.5 °F 73% 30.00 in 10.0 mi Calm Calm - N/A   Overcast
10:15 AM 0.9 °F -6.9 °F -6.2 °F 72% 30.00 in 10.0 mi SSE 3.5 mph - N/A   Overcast
10:34 AM 2.7 °F - -5.4 °F 69% 30.02 in 10.0 mi Calm Calm - N/A   Overcast
10:54 AM 5.0 °F -2.1 °F -3.3 °F 69% 30.02 in 10.0 mi WNW 3.5 mph - N/A   Overcast
11:14 AM 5.9 °F - -2.4 °F 69% 30.01 in 7.0 mi Calm Calm - N/A Snow Light Snow
11:34 AM 7.5 °F 0.8 °F -0.0 °F 71% 30.01 in 10.0 mi West 3.5 mph - N/A   Overcast
11:54 AM 9.5 °F - 2.7 °F 74% 29.99 in 10.0 mi Calm Calm - N/A   Overcast
12:14 PM 11.1 °F 0.4 °F 6.3 °F 81% 29.98 in 10.0 mi SSW 6.9 mph - N/A   Overcast
12:34 PM 13.3 °F 1.1 °F 8.1 °F 80% 29.96 in 10.0 mi SSW 9.2 mph - N/A   Overcast
12:55 PM 14.0 °F 6.5 °F 9.0 °F 80% 29.95 in 10.0 mi SW 4.6 mph - N/A   Overcast
1:14 PM 14.2 °F 6.7 °F 9.5 °F 82% 29.95 in 10.0 mi SW 4.6 mph - N/A   Overcast
1:34 PM 14.2 °F 6.7 °F 8.6 °F 78% 29.94 in 10.0 mi WNW 4.6 mph - N/A   Overcast
1:55 PM 14.2 °F 8.4 °F 8.6 °F 78% 29.93 in 10.0 mi West 3.5 mph - N/A   Overcast
2:14 PM 14.9 °F 7.5 °F 7.7 °F 73% 29.93 in 10.0 mi WNW 4.6 mph - N/A   Overcast
2:34 PM 14.0 °F 3.9 °F 6.4 °F 72% 29.93 in 10.0 mi WNW 6.9 mph - N/A   Overcast
2:54 PM 14.7 °F 5.9 °F 4.8 °F 65% 29.93 in 10.0 mi West 5.8 mph - N/A   Overcast
3:14 PM 14.7 °F 7.3 °F 3.4 °F 61% 29.93 in 10.0 mi WNW 4.6 mph - N/A   Overcast
3:35 PM 13.5 °F 5.8 °F 4.3 °F 67% 29.94 in 2.0 mi NW 4.6 mph - N/A Snow Light Snow
3:54 PM 12.9 °F 6.9 °F 7.0 °F 77% 29.94 in 1.2 mi NNW 3.5 mph - N/A Snow Light Snow
4:14 PM 12.9 °F 6.9 °F 7.5 °F 79% 29.93 in 1.5 mi NNW 3.5 mph - N/A Snow Light Snow
4:35 PM 13.1 °F - 8.4 °F 82% 29.93 in 1.8 mi Calm Calm - N/A Snow Light Snow
4:54 PM 13.1 °F 7.1 °F 8.6 °F 82% 29.93 in 2.5 mi North 3.5 mph - N/A Snow Light Snow
5:14 PM 13.1 °F - 8.6 °F 82% 29.93 in 2.5 mi Calm Calm - N/A Snow Light Snow
5:35 PM 13.1 °F - 8.6 °F 82% 29.92 in 3.0 mi Calm Calm - N/A Snow Light Snow
5:54 PM 13.1 °F 4.0 °F 9.1 °F 84% 29.91 in 3.0 mi South 5.8 mph - N/A Snow Light Snow
6:14 PM 13.1 °F - 9.5 °F 86% 29.92 in 2.5 mi Calm Calm - N/A Snow Light Snow
6:34 PM 13.1 °F - 9.9 °F 87% 29.92 in 2.0 mi Calm Calm - N/A Snow Light Snow
6:54 PM 12.7 °F 5.0 °F 9.5 °F 87% 29.93 in 2.5 mi West 4.6 mph - N/A Snow Light Snow
7:15 PM 12.2 °F - 9.5 °F 89% 29.93 in 5.0 mi Calm Calm - N/A Snow Light Snow
7:34 PM 12.7 °F - 9.5 °F 87% 29.93 in 4.0 mi Calm Calm - N/A Snow Light Snow
7:53 PM 12.0 °F - 9.1 °F 88% 29.93 in 10.0 mi Calm Calm - N/A Snow Light Snow
10:42 PM 12.7 °F - 9.3 °F 86% 29.97 in 10.0 mi Calm Calm - N/A   Overcast
10:48 PM 12.6 °F - 9.1 °F 86% 29.97 in 10.0 mi Calm Calm - N/A   Overcast
11:14 PM 12.7 °F - 9.0 °F 85% 29.98 in 10.0 mi Calm Calm - N/A   Overcast
11:34 PM 12.6 °F 6.5 °F 8.6 °F 84% 29.98 in 10.0 mi West 3.5 mph - N/A   Overcast
11:55 PM 12.6 °F - 8.6 °F 84% 29.98 in 10.0 mi Calm Calm - N/A   Overcast